Ogden Hill AFB, UT

8:07 PM MDT on July 24, 2017 (GMT -0600)
Hill Air Force Base

Weather History for KHIF - November, 2012

Change the Weather History Date:

Friday, November 9, 2012

  Actual Average Record
Temperature  
Mean Temperature 43 °F -  
Max Temperature 57 °F 46 °F 63 °F (2014)
Min Temperature 29 °F 31 °F 22 °F (2011)
Degree Days  
Heating Degree Days 22    
Moisture  
Dew Point 33 °F    
Average Humidity 89    
Maximum Humidity 100    
Minimum Humidity 37    
Precipitation  
Precipitation 0.39 in - - ()
Sea Level Pressure  
Sea Level Pressure 29.56 in    
Wind  
Wind Speed 17 mph (NNW)    
Max Wind Speed 29 mph    
Max Gust Speed 44 mph    
Visibility 3 miles    
Events Fog , Rain , Snow    
Averages and records for this station are not official NWS values.
T = Trace of Precipitation, MM = Missing Value Source: NWS Daily Summary

Daily Weather History Graph

Daily Weather History Graph

Search for Another Location

Airport or City:

Trip Planner

Search our weather history database for the weather conditions in past years. The results will help you decide how hot, cold, wet, or windy it might be!

Date:

Astronomy

Nov. 09, 2012 Rise Set
Actual Time 7:09 AM MST 5:13 PM MST
Civil Twilight 6:39 AM MST 5:43 PM MST
Nautical Twilight 6:06 AM MST 6:16 PM MST
Astronomical Twilight 5:34 AM MST 6:48 PM MST
Moon 2:09 AM MST (11/9) 2:31 PM MST (11/9)
Length of Visible Light 11h 03m
Length of Day
10h 04m
Waning Crescent, 22% of the Moon is Illuminated
Nov 9
Waning Crescent
Nov 13
New
Nov 20
First Quarter
Nov 28
Full
Dec 6
Last Quarter

Hourly Weather History & Observations

Time (MST) Temp. Windchill Dew Point Humidity Pressure Visibility Wind Dir Wind Speed Gust Speed Precip Events Conditions
12:55 AM 57.9 °F - 31.8 °F 37% 29.33 in 10.0 mi South 28.8 mph 34.5 mph N/A   Overcast
1:04 AM 57.2 °F - 32.0 °F 38% 29.33 in 10.0 mi South 26.5 mph 34.5 mph N/A   Overcast
1:08 AM 57.2 °F - 32.0 °F 38% 29.33 in 10.0 mi South 24.2 mph 32.2 mph N/A   Overcast
1:13 AM 57.2 °F - 33.8 °F 41% 29.33 in 10.0 mi South 21.9 mph 34.5 mph N/A   Overcast
2:55 AM 56.1 °F - 36.5 °F 48% 29.30 in 10.0 mi South 27.6 mph 43.7 mph N/A   Overcast
3:19 AM 55.4 °F - 37.4 °F 51% 29.35 in 10.0 mi WSW 16.1 mph 36.8 mph N/A   Overcast
3:30 AM 48.2 °F - 37.4 °F 66% 29.37 in 10.0 mi West 18.4 mph 25.3 mph N/A   Overcast
3:39 AM 46.4 °F 39.8 °F 37.4 °F 71% 29.39 in 10.0 mi West 16.1 mph - N/A   Overcast
3:44 AM 46.4 °F 39.0 °F 37.4 °F 71% 29.39 in 10.0 mi West 19.6 mph 24.2 mph N/A   Overcast
3:55 AM 45.0 °F 37.1 °F 36.9 °F 73% 29.42 in 10.0 mi West 19.6 mph - N/A   Overcast
4:32 AM 44.6 °F 40.7 °F 35.6 °F 71% 29.45 in 10.0 mi North 6.9 mph - N/A   Overcast
4:55 AM 43.0 °F 37.7 °F 35.1 °F 74% 29.47 in 10.0 mi WNW 9.2 mph - N/A   Overcast
5:05 AM 42.8 °F 35.1 °F 35.6 °F 76% 29.48 in 10.0 mi WNW 16.1 mph 24.2 mph N/A   Overcast
5:25 AM 39.2 °F 30.8 °F 35.6 °F 87% 29.53 in 9.0 mi NNW 15.0 mph - N/A Rain Light Rain
5:35 AM 37.4 °F 28.5 °F 35.6 °F 93% 29.53 in 5.0 mi NNW 15.0 mph 25.3 mph N/A Rain Light Rain
5:36 AM 37.4 °F 28.9 °F 35.6 °F 93% 29.53 in 4.0 mi NNW 13.8 mph 25.3 mph N/A Rain Light Rain
5:39 AM 37.4 °F 27.8 °F 35.6 °F 93% 29.52 in 2.5 mi NNW 17.3 mph 25.3 mph N/A Rain Light Rain
5:42 AM 35.6 °F 24.8 °F 33.8 °F 93% 29.53 in 2.0 mi NNW 19.6 mph 24.2 mph N/A Rain Light Rain
5:43 AM 35.6 °F 24.8 °F 33.8 °F 93% 29.53 in 2.0 mi NNW 19.6 mph 24.2 mph N/A Rain Light Rain
5:47 AM 35.6 °F 24.8 °F 33.8 °F 93% 29.54 in 2.5 mi NNW 19.6 mph - N/A Rain Light Rain
5:55 AM 34.5 °F 24.5 °F 32.9 °F 94% 29.54 in 1.2 mi NNW 16.1 mph - 0.07 in Rain , Snow Light Rain
6:00 AM 33.8 °F 23.2 °F 32.0 °F 93% 29.62 in 0.8 mi NNW 17.3 mph - N/A Rain , Snow Light Rain
6:04 AM 33.8 °F 23.5 °F 32.0 °F 93% 29.54 in 0.8 mi NNW 16.1 mph - N/A Snow Light Snow
6:05 AM 33.8 °F 23.2 °F 32.0 °F 93% 29.54 in 0.8 mi NNW 17.3 mph 23.0 mph N/A Snow Light Snow
6:08 AM 33.8 °F 24.3 °F 32.0 °F 93% 29.56 in 0.5 mi NNW 13.8 mph 23.0 mph N/A Fog , Snow Snow
6:12 AM 32.0 °F 23.0 °F 32.0 °F 100% 29.57 in 0.5 mi NNW 11.5 mph 23.0 mph N/A Fog , Snow Snow
6:13 AM 32.0 °F 23.0 °F 32.0 °F 100% 29.57 in 0.5 mi NNW 11.5 mph 23.0 mph N/A Fog , Snow Snow
6:25 AM 32.0 °F 24.2 °F 30.2 °F 93% 29.58 in 0.5 mi NNW 9.2 mph 19.6 mph N/A Fog , Snow Snow
6:47 AM 32.0 °F 22.1 °F 30.2 °F 93% 29.59 in 0.5 mi NNW 13.8 mph - N/A Fog , Snow Snow
6:55 AM 32.2 °F 22.3 °F 31.1 °F 96% 29.60 in 0.5 mi NW 13.8 mph - 0.10 in Fog , Snow Snow
7:07 AM 32.0 °F 21.2 °F 30.2 °F 93% 29.58 in 0.2 mi NNW 16.1 mph - N/A Fog , Snow Snow
7:08 AM 32.0 °F 21.6 °F 30.2 °F 93% 29.58 in 0.2 mi NNW 15.0 mph - N/A Fog , Snow Snow
7:16 AM 32.0 °F 20.8 °F 32.0 °F 100% 29.59 in 0.2 mi NNW 17.3 mph - N/A Fog , Snow Snow
7:32 AM 32.0 °F 21.6 °F 30.2 °F 93% 29.59 in 0.2 mi North 15.0 mph - N/A Fog , Snow Light Snow
7:33 AM 32.0 °F 21.6 °F 30.2 °F 93% 29.59 in 0.2 mi North 15.0 mph - N/A Fog , Snow Light Snow
7:39 AM 32.0 °F 23.6 °F 30.2 °F 93% 29.61 in 0.5 mi North 10.4 mph 19.6 mph N/A Fog , Snow Light Snow
7:44 AM 32.0 °F 23.0 °F 32.0 °F 100% 29.61 in 0.2 mi NNW 11.5 mph 19.6 mph N/A Fog , Snow Light Snow
7:49 AM 32.0 °F 23.0 °F 32.0 °F 100% 29.60 in 0.2 mi NNW 11.5 mph - N/A Fog , Snow Light Snow
7:52 AM 32.0 °F 23.6 °F 32.0 °F 100% 29.60 in 0.2 mi NW 10.4 mph - N/A Fog , Snow Light Snow
7:55 AM 32.2 °F 22.7 °F 31.1 °F 96% 29.60 in 0.2 mi NNW 12.7 mph - 0.04 in Fog , Snow Light Snow
7:57 AM 32.0 °F 22.1 °F 32.0 °F 100% 29.59 in 0.2 mi NNW 13.8 mph - N/A Fog , Snow Light Snow
7:58 AM 32.0 °F 22.5 °F 32.0 °F 100% 29.59 in 0.2 mi NNW 12.7 mph - N/A Fog , Snow Light Snow
8:02 AM 32.0 °F 22.1 °F 32.0 °F 100% 29.59 in 0.5 mi NNW 13.8 mph - N/A Fog , Snow Light Snow
8:12 AM 32.0 °F 21.6 °F 32.0 °F 100% 29.59 in 0.5 mi NNW 15.0 mph 25.3 mph N/A Fog , Snow Light Snow
8:17 AM 32.0 °F 21.2 °F 32.0 °F 100% 29.58 in 1.0 mi NNW 16.1 mph - N/A Snow Light Snow
8:26 AM 32.0 °F 20.5 °F 32.0 °F 100% 29.59 in 0.8 mi North 18.4 mph - N/A Snow Light Snow
8:41 AM 32.0 °F 22.5 °F 32.0 °F 100% 29.60 in 1.5 mi North 12.7 mph - N/A Snow Light Snow
8:58 AM 33.8 °F 25.8 °F 32.0 °F 93% 29.61 in 1.2 mi North 10.4 mph - N/A Snow Light Snow
9:36 AM 32.0 °F 23.0 °F 32.0 °F 100% 29.71 in 0.5 mi NW 11.5 mph - N/A Fog , Snow Light Snow
9:49 AM 33.8 °F 25.3 °F 32.0 °F 93% 29.64 in 0.5 mi NNW 11.5 mph - N/A Fog , Snow Light Snow
9:55 AM 32.9 °F 23.7 °F 31.5 °F 94% 29.63 in 0.5 mi NNW 12.7 mph - 0.01 in Fog , Snow Snow
10:20 AM 32.0 °F 25.6 °F 32.0 °F 100% 29.71 in 1.0 mi North 6.9 mph - N/A Snow Light Snow
10:55 AM 33.3 °F 27.9 °F 32.4 °F 96% 29.64 in 0.8 mi NNW 5.8 mph - 0.01 in Snow Light Snow
11:27 AM 33.8 °F 30.8 °F 33.8 °F 100% 29.62 in 1.0 mi NNE 3.5 mph - N/A Snow Light Snow
11:55 AM 33.1 °F 26.1 °F 32.7 °F 99% 29.63 in 0.5 mi NW 8.1 mph - 0.01 in Snow Snow
12:55 PM 33.3 °F 25.7 °F 32.7 °F 98% 29.57 in 0.5 mi NW 9.2 mph - 0.01 in Snow Light Snow
1:55 PM 33.1 °F 27.7 °F 32.9 °F 99% 29.58 in 0.5 mi NW 5.8 mph - 0.02 in Snow Light Snow
2:55 PM 32.7 °F - 32.5 °F 99% 29.57 in 0.8 mi Calm Calm - 0.02 in Snow Light Snow
3:11 PM 32.0 °F - 32.0 °F 100% 29.62 in 1.0 mi Variable 1.2 mph - N/A Snow Light Snow
3:55 PM 33.1 °F 27.7 °F 32.7 °F 99% 29.61 in 0.8 mi SW 5.8 mph - 0.01 in Snow Light Snow
5:55 PM 31.8 °F 21.8 °F 31.5 °F 99% 29.66 in 0.6 mi NNW 13.8 mph - 0.05 in Snow Light Snow
6:55 PM 30.7 °F 20.9 °F 30.6 °F 99% 29.69 in 1.0 mi NNW 12.7 mph - 0.01 in Snow Light Snow
7:55 PM 30.2 °F 21.3 °F 30.0 °F 99% 29.70 in 1.0 mi NNW 10.4 mph - 0.00 in Snow Light Snow
8:55 PM 29.8 °F 23.9 °F 29.7 °F 99% 29.72 in 1.5 mi NNE 5.8 mph - 0.00 in Snow Light Snow
9:55 PM 29.8 °F - 29.1 °F 97% 30.06 in 3.0 mi NNE 2.3 mph - 0.01 in Snow Light Snow
10:55 PM 29.8 °F - 29.3 °F 98% 29.71 in 3.0 mi Calm Calm - 0.00 in Snow Light Snow
11:55 PM 29.3 °F 24.3 °F 28.8 °F 98% 29.70 in 3.0 mi NW 4.6 mph - 0.02 in Snow Light Snow